AFR71KE LFPG-LEBL

Flight info

Callsign AFR71KE
Flight time 1h 24m
Altitude 39000
Route ERIXU DCT ETAMO DCT VALKU DCT ATSUP DCT MINSO DCT DEGOL DCT PPG DCT ALBER
Aircraft E190/M-SDE3GILORVW/S

Departure

Time 2026-05-04 17:07
Airport Charles de Gaulle International Airport (LFPG)

Arrival

Time 2026-05-04 18:31
Airport Josep Tarradellas Barcelona-El Prat Airport (LEBL)
Time Latitude Longitude Altitude Speed Heading
2026-05-04 16:34 49.00412 2.60000 329 ft 0 kts 86°
2026-05-04 16:53 49.00410 2.59961 329 ft 2 kts 86°
2026-05-04 16:53 49.00423 2.59917 329 ft 1 kts 184°
2026-05-04 16:54 49.00429 2.59917 329 ft 0 kts 176°
2026-05-04 16:56 49.00424 2.59918 329 ft 0 kts 175°
2026-05-04 16:57 49.00405 2.59920 329 ft 5 kts 174°
2026-05-04 16:57 49.00311 2.59930 329 ft 7 kts 185°
2026-05-04 16:58 49.00277 2.59724 329 ft 8 kts 266°
2026-05-04 16:58 49.00267 2.59641 329 ft 8 kts 234°
2026-05-04 16:59 49.00124 2.59635 327 ft 12 kts 179°
2026-05-04 17:00 49.00058 2.59181 326 ft 11 kts 262°
2026-05-04 17:00 49.00041 2.58807 328 ft 5 kts 266°
2026-05-04 17:01 49.00021 2.58483 332 ft 24 kts 264°
2026-05-04 17:01 48.99992 2.57953 340 ft 23 kts 265°
2026-05-04 17:02 48.99967 2.57494 346 ft 20 kts 264°
2026-05-04 17:02 48.99946 2.57091 350 ft 18 kts 267°
2026-05-04 17:03 48.99936 2.56894 350 ft 18 kts 265°
2026-05-04 17:03 48.99921 2.56687 348 ft 19 kts 265°
2026-05-04 17:03 48.99901 2.56247 341 ft 21 kts 266°
2026-05-04 17:04 48.99818 2.56031 337 ft 11 kts 167°
2026-05-04 17:04 48.99704 2.56033 335 ft 8 kts 175°
2026-05-04 17:05 48.99613 2.56107 335 ft 0 kts 86°
2026-05-04 17:05 48.99614 2.56146 336 ft 10 kts 89°
2026-05-04 17:06 48.99706 2.57833 339 ft 160 kts 86°
2026-05-04 17:06 48.99813 2.59727 868 ft 189 kts 86°
2026-05-04 17:07 48.99978 2.63996 2460 ft 219 kts 91°
2026-05-04 17:07 49.00013 2.65553 3053 ft 225 kts 90°
2026-05-04 17:07 49.00197 2.68907 3876 ft 256 kts 83°
2026-05-04 17:07 49.00329 2.71714 4485 ft 279 kts 86°
2026-05-04 17:08 49.00491 2.74018 5378 ft 281 kts 84°
2026-05-04 17:08 49.00423 2.79700 7936 ft 270 kts 98°
2026-05-04 17:08 49.00154 2.82514 8952 ft 272 kts 98°
2026-05-04 17:09 48.99876 2.85371 9850 ft 278 kts 98°
2026-05-04 17:09 48.99461 2.88286 10659 ft 286 kts 115°
2026-05-04 17:09 48.98178 2.90601 11362 ft 300 kts 146°
2026-05-04 17:10 48.94022 2.90896 12706 ft 328 kts 207°
2026-05-04 17:10 48.90113 2.82256 15323 ft 339 kts 243°
2026-05-04 17:11 48.89110 2.79064 16202 ft 341 kts 244°
2026-05-04 17:11 48.88096 2.75785 17089 ft 342 kts 244°
2026-05-04 17:11 48.85383 2.70159 18610 ft 342 kts 209°
2026-05-04 17:12 48.83154 2.68873 19406 ft 345 kts 197°
2026-05-04 17:12 48.78486 2.66844 20956 ft 351 kts 196°
2026-05-04 17:13 48.71347 2.63813 23188 ft 361 kts 196°
2026-05-04 17:14 48.63994 2.60737 25397 ft 369 kts 196°
2026-05-04 17:14 48.61494 2.59692 26091 ft 371 kts 196°
2026-05-04 17:14 48.56549 2.57480 27433 ft 376 kts 203°
2026-05-04 17:15 48.54213 2.55651 28077 ft 379 kts 212°
2026-05-04 17:15 48.49515 2.51830 29290 ft 384 kts 204°
2026-05-04 17:16 48.44581 2.48613 30502 ft 389 kts 203°
2026-05-04 17:16 48.36972 2.43820 32027 ft 398 kts 203°
2026-05-04 17:17 48.34429 2.42226 32579 ft 399 kts 202°
2026-05-04 17:17 48.26794 2.37451 34406 ft 394 kts 203°
2026-05-04 17:18 48.24252 2.35866 34935 ft 392 kts 203°
2026-05-04 17:18 48.19233 2.32739 35554 ft 392 kts 202°
2026-05-04 17:19 48.14212 2.29617 36037 ft 395 kts 202°
2026-05-04 17:19 48.09076 2.26745 36648 ft 397 kts 193°
2026-05-04 17:20 48.03567 2.26234 37276 ft 402 kts 179°
2026-05-04 17:20 47.97983 2.26625 37930 ft 402 kts 180°
2026-05-04 17:20 47.96010 2.26752 38141 ft 402 kts 180°
2026-05-04 17:21 47.90413 2.27110 38683 ft 403 kts 180°
2026-05-04 17:21 47.84847 2.27464 38922 ft 401 kts 180°
2026-05-04 17:22 47.79182 2.27823 38935 ft 416 kts 180°
2026-05-04 17:23 47.70322 2.28384 38927 ft 433 kts 179°
2026-05-04 17:23 47.67285 2.28576 38925 ft 432 kts 179°
2026-05-04 17:24 47.58329 2.29140 38920 ft 430 kts 179°
2026-05-04 17:25 47.46423 2.29887 38923 ft 429 kts 179°
2026-05-04 17:26 47.34465 2.30633 38915 ft 430 kts 180°
2026-05-04 17:27 47.19534 2.31560 38927 ft 430 kts 179°
2026-05-04 17:28 47.07644 2.32295 38901 ft 428 kts 179°
2026-05-04 17:29 46.89865 2.33387 38905 ft 427 kts 180°
2026-05-04 17:30 46.80993 2.35402 38914 ft 434 kts 161°
2026-05-04 17:31 46.75440 2.38705 38905 ft 434 kts 161°
2026-05-04 17:32 46.61369 2.46829 38912 ft 434 kts 161°
2026-05-04 17:33 46.50154 2.53263 38903 ft 434 kts 161°
2026-05-04 17:34 46.38947 2.59665 38896 ft 433 kts 162°
2026-05-04 17:35 46.24915 2.67640 38904 ft 433 kts 163°
2026-05-04 17:36 46.19358 2.70787 38900 ft 432 kts 163°
2026-05-04 17:36 46.13707 2.73978 38901 ft 434 kts 163°
2026-05-04 17:37 46.08122 2.77127 38905 ft 432 kts 163°
2026-05-04 17:37 46.02526 2.80275 38908 ft 433 kts 163°
2026-05-04 17:38 45.96885 2.83352 38913 ft 433 kts 164°
2026-05-04 17:38 45.91256 2.86324 38910 ft 431 kts 164°
2026-05-04 17:39 45.82824 2.90768 38924 ft 430 kts 164°
2026-05-04 17:39 45.77201 2.93723 38931 ft 430 kts 165°
2026-05-04 17:40 45.71414 2.95157 38950 ft 420 kts 184°
2026-05-04 17:40 45.65589 2.95031 38925 ft 419 kts 184°
2026-05-04 17:41 45.59782 2.94880 38923 ft 418 kts 185°
2026-05-04 17:41 45.53986 2.94726 38920 ft 417 kts 184°
2026-05-04 17:42 45.48156 2.94571 38921 ft 418 kts 184°
2026-05-04 17:42 45.42377 2.94419 38918 ft 417 kts 185°
2026-05-04 17:43 45.36560 2.94266 38918 ft 418 kts 184°
2026-05-04 17:43 45.30802 2.94115 38913 ft 416 kts 185°
2026-05-04 17:44 45.25016 2.93963 38917 ft 416 kts 185°
2026-05-04 17:44 45.19224 2.93811 38924 ft 414 kts 185°
2026-05-04 17:45 45.13497 2.93661 38924 ft 415 kts 184°
2026-05-04 17:45 45.07722 2.93511 38926 ft 414 kts 185°
2026-05-04 17:46 45.01947 2.93361 38949 ft 414 kts 185°
2026-05-04 17:46 44.96239 2.93213 38913 ft 414 kts 185°
2026-05-04 17:47 44.90472 2.93063 38922 ft 414 kts 185°
2026-05-04 17:47 44.84735 2.92914 38921 ft 415 kts 185°
2026-05-04 17:48 44.78957 2.92489 38913 ft 412 kts 186°
2026-05-04 17:48 44.73221 2.92066 38909 ft 412 kts 187°
2026-05-04 17:49 44.67524 2.91649 38912 ft 413 kts 186°
2026-05-04 17:49 44.61778 2.91230 38907 ft 412 kts 187°
2026-05-04 17:50 44.56024 2.90811 38912 ft 412 kts 187°
2026-05-04 17:50 44.50309 2.90396 38913 ft 411 kts 187°
2026-05-04 17:51 44.44594 2.89982 38902 ft 411 kts 187°
2026-05-04 17:51 44.38899 2.89569 38935 ft 414 kts 187°
2026-05-04 17:52 44.33152 2.89154 38895 ft 413 kts 187°
2026-05-04 17:52 44.27413 2.88741 38919 ft 413 kts 187°
2026-05-04 17:53 44.21685 2.88329 38895 ft 413 kts 187°
2026-05-04 17:53 44.15956 2.87917 38896 ft 412 kts 187°
2026-05-04 17:54 44.10212 2.87505 38904 ft 413 kts 187°
2026-05-04 17:54 44.04470 2.87094 38890 ft 414 kts 187°
2026-05-04 17:55 43.98752 2.86687 38903 ft 411 kts 187°
2026-05-04 17:55 43.93030 2.86279 38910 ft 413 kts 187°
2026-05-04 17:56 43.87356 2.85875 38901 ft 411 kts 187°
2026-05-04 17:56 43.81679 2.85472 38891 ft 412 kts 187°
2026-05-04 17:57 43.75939 2.85212 38898 ft 415 kts 184°
2026-05-04 17:57 43.70207 2.85329 38905 ft 403 kts 184°
2026-05-04 17:58 43.64727 2.85411 38893 ft 393 kts 185°
2026-05-04 17:58 43.59172 2.85491 38903 ft 399 kts 184°
2026-05-04 17:59 43.53751 2.85575 38713 ft 373 kts 185°
2026-05-04 17:59 43.48809 2.85647 38126 ft 344 kts 185°
2026-05-04 18:00 43.46464 2.85680 37836 ft 333 kts 185°
2026-05-04 18:00 43.44178 2.85713 37479 ft 325 kts 185°
2026-05-04 18:00 43.41942 2.85746 37088 ft 317 kts 186°
2026-05-04 18:00 43.39751 2.85777 36699 ft 310 kts 186°
2026-05-04 18:01 43.37627 2.85807 36258 ft 305 kts 186°
2026-05-04 18:01 43.35456 2.85834 35428 ft 324 kts 185°
2026-05-04 18:01 43.33091 2.85863 34587 ft 364 kts 184°
2026-05-04 18:02 43.27761 2.85947 33465 ft 392 kts 184°
2026-05-04 18:02 43.25023 2.85989 33017 ft 392 kts 184°
2026-05-04 18:02 43.22323 2.86029 32583 ft 393 kts 184°
2026-05-04 18:02 43.19570 2.86068 32150 ft 393 kts 184°
2026-05-04 18:03 43.16816 2.86108 31712 ft 395 kts 183°
2026-05-04 18:03 43.14059 2.86148 31277 ft 396 kts 183°
2026-05-04 18:03 43.11314 2.86188 30841 ft 397 kts 183°
2026-05-04 18:03 43.08579 2.86227 30407 ft 394 kts 183°
2026-05-04 18:04 43.05850 2.86267 29959 ft 391 kts 183°
2026-05-04 18:04 43.03120 2.86307 29521 ft 387 kts 183°
2026-05-04 18:04 42.97784 2.86383 28674 ft 382 kts 183°
2026-05-04 18:05 42.95135 2.86421 28248 ft 380 kts 183°
2026-05-04 18:05 42.92471 2.86459 27802 ft 378 kts 183°
2026-05-04 18:05 42.89961 2.86495 27410 ft 375 kts 183°
2026-05-04 18:05 42.87259 2.86534 26993 ft 374 kts 183°
2026-05-04 18:06 42.82113 2.86607 26169 ft 370 kts 183°
2026-05-04 18:06 42.79527 2.86644 25760 ft 368 kts 183°
2026-05-04 18:06 42.76955 2.86681 25348 ft 365 kts 183°
2026-05-04 18:07 42.74430 2.86630 24951 ft 362 kts 187°
2026-05-04 18:07 42.71926 2.86341 24551 ft 360 kts 187°
2026-05-04 18:07 42.69390 2.86044 24146 ft 359 kts 187°
2026-05-04 18:07 42.66902 2.85752 23744 ft 357 kts 187°
2026-05-04 18:08 42.64410 2.85459 23346 ft 355 kts 187°
2026-05-04 18:08 42.61956 2.85171 22956 ft 353 kts 187°
2026-05-04 18:08 42.59482 2.84882 22553 ft 353 kts 188°
2026-05-04 18:08 42.57027 2.84594 22158 ft 351 kts 188°
2026-05-04 18:09 42.52130 2.84021 21379 ft 349 kts 188°
2026-05-04 18:09 42.47304 2.83457 20605 ft 347 kts 188°
2026-05-04 18:10 42.44909 2.83133 20222 ft 345 kts 192°
2026-05-04 18:10 42.42549 2.82565 19904 ft 345 kts 193°
2026-05-04 18:10 42.40165 2.81978 19521 ft 345 kts 193°
2026-05-04 18:10 42.37818 2.81401 19147 ft 342 kts 193°
2026-05-04 18:11 42.35470 2.80823 18771 ft 341 kts 192°
2026-05-04 18:11 42.33143 2.80251 18399 ft 339 kts 192°
2026-05-04 18:11 42.30801 2.79676 18021 ft 338 kts 192°
2026-05-04 18:11 42.28495 2.79110 17650 ft 337 kts 193°
2026-05-04 18:12 42.26189 2.78544 17277 ft 336 kts 193°
2026-05-04 18:12 42.23873 2.77977 16913 ft 334 kts 192°
2026-05-04 18:12 42.21578 2.77414 16537 ft 334 kts 192°
2026-05-04 18:12 42.19268 2.76849 16158 ft 332 kts 192°
2026-05-04 18:13 42.16990 2.76292 15776 ft 330 kts 192°
2026-05-04 18:13 42.14731 2.75740 15409 ft 328 kts 192°
2026-05-04 18:13 42.10243 2.74645 14693 ft 326 kts 192°
2026-05-04 18:14 42.08028 2.74104 14339 ft 326 kts 192°
2026-05-04 18:14 42.05807 2.73563 13971 ft 325 kts 192°
2026-05-04 18:14 42.03572 2.73019 13609 ft 324 kts 192°
2026-05-04 18:15 41.99178 2.71950 12904 ft 320 kts 192°
2026-05-04 18:15 41.94854 2.70901 12191 ft 304 kts 193°
2026-05-04 18:15 41.92810 2.70405 11859 ft 291 kts 193°
2026-05-04 18:16 41.90870 2.69934 11544 ft 281 kts 193°
2026-05-04 18:16 41.88964 2.69506 11364 ft 274 kts 191°
2026-05-04 18:16 41.87038 2.69173 11283 ft 279 kts 190°
2026-05-04 18:17 41.83181 2.68525 10703 ft 280 kts 190°
2026-05-04 18:17 41.81208 2.68192 10409 ft 278 kts 190°
2026-05-04 18:17 41.77338 2.67552 9832 ft 276 kts 190°
2026-05-04 18:18 41.75419 2.67238 9541 ft 276 kts 190°
2026-05-04 18:18 41.73522 2.66922 9254 ft 275 kts 190°
2026-05-04 18:18 41.71615 2.66607 8965 ft 273 kts 190°
2026-05-04 18:18 41.69720 2.66293 8672 ft 271 kts 190°
2026-05-04 18:19 41.65952 2.65665 8093 ft 270 kts 190°
2026-05-04 18:19 41.64041 2.65344 7907 ft 267 kts 190°
2026-05-04 18:19 41.62154 2.65021 7724 ft 270 kts 190°
2026-05-04 18:20 41.60249 2.64697 7374 ft 270 kts 190°
2026-05-04 18:20 41.58401 2.64384 6979 ft 267 kts 190°
2026-05-04 18:20 41.56560 2.64074 6582 ft 265 kts 190°
2026-05-04 18:20 41.54743 2.63765 6188 ft 263 kts 190°
2026-05-04 18:21 41.52970 2.63303 5791 ft 259 kts 207°
2026-05-04 18:21 41.51644 2.61751 5445 ft 255 kts 235°
2026-05-04 18:21 41.51032 2.59560 5169 ft 257 kts 260°
2026-05-04 18:21 41.50766 2.57211 4922 ft 257 kts 261°
2026-05-04 18:22 41.50394 2.54864 4637 ft 255 kts 251°
2026-05-04 18:22 41.49688 2.52750 4350 ft 245 kts 242°
2026-05-04 18:22 41.48829 2.50844 4069 ft 237 kts 237°
2026-05-04 18:22 41.47919 2.49087 4006 ft 219 kts 235°
2026-05-04 18:23 41.47049 2.47513 3995 ft 199 kts 234°
2026-05-04 18:23 41.46240 2.46099 3952 ft 181 kts 233°
2026-05-04 18:23 41.45477 2.44793 3971 ft 176 kts 233°
2026-05-04 18:23 41.44708 2.43489 3989 ft 179 kts 232°
2026-05-04 18:24 41.43922 2.42166 3993 ft 180 kts 232°
2026-05-04 18:24 41.43123 2.40828 3991 ft 180 kts 232°
2026-05-04 18:24 41.42353 2.39543 3989 ft 179 kts 232°
2026-05-04 18:24 41.41570 2.38239 3992 ft 180 kts 232°
2026-05-04 18:25 41.40783 2.36931 3994 ft 179 kts 232°
2026-05-04 18:25 41.40003 2.35634 3994 ft 179 kts 232°
2026-05-04 18:25 41.39218 2.34330 3999 ft 179 kts 232°
2026-05-04 18:25 41.38435 2.33033 3998 ft 180 kts 232°
2026-05-04 18:26 41.37823 2.31573 3811 ft 185 kts 245°
2026-05-04 18:26 41.37297 2.30011 3521 ft 182 kts 245°
2026-05-04 18:26 41.36770 2.28470 3169 ft 181 kts 245°
2026-05-04 18:26 41.36255 2.26960 3002 ft 168 kts 245°
2026-05-04 18:27 41.35765 2.25523 2649 ft 170 kts 245°
2026-05-04 18:27 41.35270 2.24074 2328 ft 170 kts 245°
2026-05-04 18:27 41.34807 2.22717 2103 ft 152 kts 244°
2026-05-04 18:27 41.34380 2.21464 1848 ft 141 kts 244°
2026-05-04 18:28 41.33998 2.20345 1627 ft 127 kts 245°
2026-05-04 18:28 41.33635 2.19281 1469 ft 126 kts 244°
2026-05-04 18:28 41.33295 2.18209 1312 ft 127 kts 250°
2026-05-04 18:28 41.32952 2.17102 1159 ft 127 kts 245°
2026-05-04 18:29 41.32539 2.16028 969 ft 128 kts 241°
2026-05-04 18:29 41.32142 2.14945 818 ft 129 kts 245°
2026-05-04 18:29 41.31760 2.13842 641 ft 131 kts 244°
2026-05-04 18:29 41.31377 2.12728 448 ft 135 kts 245°
2026-05-04 18:30 41.30620 2.10509 95 ft 128 kts 245°
2026-05-04 18:30 41.30265 2.09474 23 ft 111 kts 245°
2026-05-04 18:30 41.30002 2.08704 24 ft 71 kts 245°
2026-05-04 18:31 41.29837 2.08318 23 ft 29 kts 220°
2026-05-04 18:31 41.29748 2.08232 23 ft 4 kts 216°
2026-05-04 18:31 41.29720 2.08207 23 ft 5 kts 211°
2026-05-04 18:31 41.29680 2.08190 23 ft 5 kts 167°
2026-05-04 18:32 41.29640 2.08217 23 ft 6 kts 157°
2026-05-04 18:32 41.29587 2.08248 23 ft 10 kts 152°
2026-05-04 18:32 41.29502 2.08296 23 ft 15 kts 154°
2026-05-04 18:32 41.29396 2.08364 23 ft 17 kts 154°
2026-05-04 18:33 41.29342 2.08395 23 ft 7 kts 158°
2026-05-04 18:33 41.29275 2.08435 23 ft 15 kts 155°
2026-05-04 18:33 41.29161 2.08429 23 ft 17 kts 198°
2026-05-04 18:33 41.29053 2.08358 23 ft 17 kts 232°
2026-05-04 18:34 41.29000 2.08213 23 ft 17 kts 246°
2026-05-04 18:34 41.28950 2.08069 23 ft 12 kts 244°
2026-05-04 18:34 41.28913 2.07959 23 ft 13 kts 246°
2026-05-04 18:34 41.28870 2.07855 23 ft 12 kts 237°
2026-05-04 18:35 41.28839 2.07769 23 ft 7 kts 246°
2026-05-04 18:35 41.28827 2.07733 23 ft 1 kts 245°
2026-05-04 18:35 41.28819 2.07711 23 ft 0 kts 244°
2026-05-04 18:35 41.28818 2.07708 23 ft 0 kts 245°